Location: *
(51.4660°N, 0.3360°W)
Time: 16:16:39
(UTC+00:00)

ADEOS Rocket - Pass Details

Date: 19 September 2019
Orbit: 859 x 1306 km, 98.7° (Epoch: 22 October)

Event Time Altitude Azimuth Distance (km) Brightness Sun altitude
Rises 19:23:55 0° 18° (NNE) 4,041 6.2 -12.5°
Reaches altitude 10° 19:26:37 10° 24° (NNE) 3,133 5.6 -12.9°
Maximum altitude 19:33:34 45° 97° (E) 1,651 3.8 -13.9°
Drops below altitude 10° 19:40:54 10° 168° (SSE) 3,306 5.4 -15.0°
Sets 19:43:47 0° 174° (S) 4,283 6.1 -15.4°
